sat.trackr.live / text

‹ back to catalog

STARLINK-1039

NORAD 44744 · 2019-074AH

PAYLOAD ACTIVE UNKNOWN

§ Identity

Operator
Country
US
Launch date
2019-11-11
Launch site
AFETR
Launch vehicle
Mass (kg)
RCS (m²)

Purposes: comms

External: N2YO · Heavens-Above · Gunter

§ Orbital elements

Epoch: 2026-09-20T00:27:00.449280Z

Period
93.79 min
Inclination
53.0580°
Eccentricity
0.0001810
Mean motion
15.35367204 rev/d
Perigee alt
458.6 km
Apogee alt
461.1 km
Semi-major
6,838.0 km
B*
9.3995e-4
RAAN
32.0452°
Arg perigee
55.6480°
Mean anomaly
304.4693°
Rev number
37,808

§ Raw data

STARLINK-10391 44744U 19074AH  26263.01875520  .00032516  00000+0  93995-3 0  99952 44744  53.0580  32.0452 0001810  55.6480 304.4693 15.35367204378081

JSON: /api/v1/satellites/44744 · /tle

For live sub-satellite position, see the globe view (requires WebGL).

§ Visibility from observer

Set your observer location to see the next 7 days of passes ≥ 10°. The values pass through the URL so the page stays shareable.

No JS? Fill the form by hand. The geolocation button needs JavaScript.